Regional Weather Roundup
Issued by NWS Wakefield, VA

Home | Current Version | Previous Version | Text Only | Print | Product List | Glossary Off
Versions: 1 2 3 4 5 6 7 8 9 10 11 12 13 14 15 16 17 18 19 20 21 22 23 24 25 26 27 28 29 30 31 32 33 34 35 36 37 38 39 40 41 42 43 44 45 46 47 48 49 50

000
ASUS41 KAKQ 011215
RWRAKQ

REGIONAL WEATHER ROUNDUP
NATIONAL WEATHER SERVICE WAKEFIELD VA
800 AM EDT SAT AUG 01 2015

Note: "fair" indicates few or no clouds below 12,000 feet with no
significant weather and/or obstructions to visibility. * = Denotes
station may not report precipitation (e.g., rain,snow,etc.),
thunder or fog.

VAZ042-051-052>054-056-011300-
NORTHERN VIRGINIA

CITY           SKY/WX    TMP DP  RH WIND       PRES   REMARKS
WASH NATIONAL  MOSUNNY   78  64  61 S6        29.88R
DULLES         MOSUNNY   71  65  81 S3        29.89R
FORT BELVOIR   SUNNY     69  68  96 CALM      29.88R
QUANTICO       NOT AVBL
FREDERICKSBRG* SUNNY     71  68  89 CALM      29.89S
STAFFORD*      SUNNY     68  65  90 CALM      29.93S
WARRENTON      SUNNY     70  67  92 CALM      29.89S
CULPEPER*      SUNNY     67  65  94 CALM      29.91R
MANASSAS*      SUNNY     70  66  88 CALM      29.89R
LEESBURG*      SUNNY     72  68  88 CALM      29.90S
WINCHESTER     SUNNY     73  61  64 SW9       29.91S
FRONT ROYAL*   FAIR      68  61  77 S6        29.91R
LURAY*         FAIR      68  64  88 CALM      29.94R
$$

VAZ048-049-060>072-079>083-011300-
CENTRAL AND SOUTH CENTRAL VIRGINIA

CITY           SKY/WX    TMP DP  RH WIND       PRES   REMARKS
RICHMOND       MOSUNNY   71  65  81 S3        29.91R
CHESTERFIELD*  FAIR      73  55  53 W3        29.93R
PETERSBURG*    SUNNY     72  70  94 SW3       29.93S
HANOVER        SUNNY     72  64  76 CALM      29.93R
TAPPAHANNOCK*  SUNNY     72  65  78 CALM      29.92R
QUINTON*       FAIR      71  66  84 CALM      29.91R
CHARLOTTSVILLE SUNNY     74  62  66 CALM      29.91S
GORDONSVILLE*  FAIR      68  64  88 CALM      29.91R
ORANGE*        SUNNY     70  64  83 CALM      29.92S
LOUISA*        SUNNY     72  64  78 CALM      29.91R
BUMPASS*       FAIR      69  64  85 CALM      29.91R
FARMVILLE*     SUNNY     68  67  95 SE3       29.92S
CREWE*         FAIR     N/A N/A N/A CALM      29.93R
FORT PICKETT*  FAIR      71  64  80 CALM      29.94R
CHASE CITY*    FAIR      72  67  84 CALM      29.95R
CLARKSVILLE*   FAIR      68  63  83 CALM      29.95R
SOUTH HILL*    SUNNY     68  65  93 CALM      30.00R
LAWRENCEVILLE* FAIR      70  64  83 SW3       29.94R
EMPORIA*       SUNNY     70  64  83 CALM      29.95R
$$

VAZ088>098-011300-
SOUTHEAST VIRGINIA

CITY           SKY/WX    TMP DP  RH WIND       PRES   REMARKS
NORFOLK        SUNNY     77  68  73 W6        29.92R
VIRGINIA BEACH PTSUNNY   78  69  73 SW5       29.91R
NORFOLK NAVAL  MOSUNNY   77  69  76 SW6       29.94R
WEST POINT*    SUNNY     76  67  74 SW6       29.92R
SALUDA*        PTSUNNY   75  70  83 SW6       29.90R
NEWPORT NEWS   SUNNY     78  71  79 W6        29.92R
LANGLEY AFB    NOT AVBL
FORT EUSTIS    SUNNY     77  77  99 CALM      29.90R
WILLIAMSBURG*  SUNNY     77  72  83 W5        29.92S
HR EXEC AP*    FAIR      72  70  94 CALM      29.95R
FRANKLIN*      SUNNY     73  70  90 CALM      29.93S
WAKEFIELD      SUNNY     73  68  84 CALM      29.93R
$$

VAZ020-022-025-037-045-011300-
WEST CENTRAL AND SOUTHWEST VIRGINIA

CITY           SKY/WX    TMP DP  RH WIND       PRES   REMARKS
STAUNTON*      SUNNY     69  62  80 SW3       29.97S
WAYNESBORO*    FAIR      70  60  70 W5        29.97S
HOT SPRINGS VA SUNNY     64  56  76 W13       30.07R
LYNCHBURG      SUNNY     66  62  87 S5        29.97R
DANVILLE       SUNNY     67  63  87 SW6       29.96S
SOUTH BOSTON*  FAIR      67  65  91 CALM      29.95S
MARTINSVILLE   SUNNY     64  64 100 CALM      30.00S
ROANOKE        SUNNY     71  59  65 W9        29.99S
BLACKSBURG     SUNNY     64  61  90 CALM      30.07S
DUBLIN*          N/A     66  61  85 SW5       30.06R
MARION*        SUNNY     63  58  86 W6        30.10R
HILLSVILLE*    SUNNY     65  57  75 W3        30.06S
RICHLANDS*     FAIR      65  59  82 CALM      30.09R
WISE*          SUNNY     66  55  68 W3        30.11R
ABINGDON*      SUNNY     63  59  88 CALM      30.08R
$$

MDZ021>025-VAZ099-100-011300-
SOUTHERN MARYLAND AND THE DELMARVA PENINSULA

CITY           SKY/WX    TMP DP  RH WIND       PRES   REMARKS
PATUXENT RIVER MOSUNNY   74  66  76 SW7       29.88S
BAY BRIDGE APT   N/A     79  63  57 W3        29.87S
LEONARDTOWN    SUNNY     73  64  73 CALM      29.91R
DOVER          SUNNY     76  68  75 SW7       29.85R
GEORGETOWN     SUNNY     75  67  76 SW8       29.88S
EASTON         SUNNY     79  72  78 CALM      29.90S
CAMBRIDGE      SUNNY     77  68  73 CALM      29.87S
SALISBURY      SUNNY     76  69  79 SW6       29.88S
OCEAN CITY     SUNNY     79  69  71 W7        29.88S
WALLOPS ISLAND SUNNY     78  73  84 SW6       29.90R
ACCOMACK*      SUNNY     77  77 100 SW6       29.91R
$$

NCZ012>017-030>032-011300-
NORTH CENTRAL AND EASTERN NORTH CAROLINA

CITY           SKY/WX    TMP DP  RH WIND       PRES   REMARKS
ROANOKE RAPIDS FAIR      70  66  88 CALM      29.94R
RALEIGH        MOSUNNY   73  66  78 CALM      29.96R
ELIZABETH CITY SUNNY     78  71  79 CALM      29.92R
AHOSKIE*       SUNNY     72  69  92 CALM      29.93F
EDENTON*       SUNNY     75  71  88 CALM      29.93R
CURRITUCK*     SUNNY     75  69  82 CALM      29.93R
KILL DEVIL HLS SUNNY     81  69  66 CALM      29.91S
MANTEO         SUNNY     80  68  67 S6        29.92S
CAPE HATTERAS  CLOUDY    78  72  81 SE15      29.93R
TARBORO*         N/A     72  70  94 CALM      29.94F
GOLDSBORO      MOSUNNY   73  72  97 NW5       29.92R
WASHINGTON     MOSUNNY   73  72  96 CALM      29.94R FOG
GREENVILLE     MOSUNNY   73  72  94 N3        29.96R FOG
NEW BERN       PTSUNNY   78  74  87 NW5       29.93S
WILMINGTON     PTSUNNY   77  73  87 NW3       29.91F
$$

VAZ048-011300-
ELSEWHERE

CITY           SKY/WX    TMP DP  RH WIND       PRES   REMARKS
HARRISBURG PA  PTSUNNY   74  63  68 CALM      29.85S
BALTIMORE      MOSUNNY   75  64  68 W6        29.87R
ANNAPOLIS      SUNNY     78  63  59 NW3       29.86S
ANDREWS AFB    SUNNY     76  66  70 W8        29.88R
PHILADELPHIA   MOSUNNY   78  64  61 SW8       29.85R
HENDERSON NC   SUNNY     73  61  65 CALM      29.96R
GREENSBORO     MOSUNNY   70  61  73 CALM      29.98R
ROCKY MOUNT    SUNNY     74  69  85 CALM      29.94R
$$

VAZ100-011300-
MARINE

STATION/POSITION TIME  TEMP    WIND        PRES    WAVE   SWELL
                       AIR SEA DIR/SP/G            HT/PER HT/PER
                 (UTC) (F)     (DEG/KT/KT) (MB)    (FT/S) (FT/S)
BRANDYWINE LGT   1100   76 76  260/ 14/ 15 1011.2R
CAPE MAY NJ      1100   77 74  260/ 13/ 15 1010.7R
LEWES DE         1100   75 72  250/  6/  9 1011.1R
15NM E FENWICK I 1150   79 79  230/ 12/ 14 1011.8R   3/ 8   2/ 8
OCEAN-CITY-INLET 1100   75 77  270/  5/  6 1010.9R
WACHAPREAGUE VA  1100   75 82  260/  3/  5 1012.4R
GOOSES REEF MD   1200   78 81  240/  8/  8 1012.6R
COVE POINT MD    1100   76     280/  7/ 10 1012.1R
SOLOMONS ISLAND  1100      83                N/A
BISHOPS HEAD MD  1100   80 80  220/ 12/ 13 1010.6R
PINEY POINT MD   1100          240/  7/ 10   N/A
POTOMAC MD       1200   77 82  260/  8/ 10 1011.1R   1/ 2
CAMBRIDGE MD     1100   76 84  250/  4/  6 1010.5R
LEWISETTA VA     1100   74 83  240/  6/  8 1011.5R
RAPPAHANNOCK LGT 1100          240/ 13/ 15 1012.7R
STINGRAY PT      1200   78 83  230/ 16/ 17 1012.4R   1/ 2
YORK RVR RNG VA  1100   78     260/ 13/ 15 1011.8R
YORKTOWN VA      1100   75 83  230/  8/ 11 1012.1R
JAMESTOWN VA     1200   75 85  260/  6/  8   N/A
DOMINION TERM VA 1100   78     240/ 10/ 11 1012.2R
KIPTOPEKE VA     1100      81  250/ 10/ 12   N/A
CHES BAY BRIDGE  1100   77 81  220/  8/ 10 1012.0R
CAPE HENRY VA    1100   75     220/  7/ 11   N/A
CHESAPEAKE LGHT  1100   78     230/ 10/ 10 1013.3R
WILLOUBY STN VA  1100   77     220/ 10/ 10 1013.4R
CAPE HENRY BUOY  1128      80                N/A     2/ 8
1ST LANDING BUOY 1200      80              1012.7R   1/ 4
CAPE CHARLES BUO 1126      79                N/A     2/ 9   2/ 9
OFFSHORE WE BUOY 1111      81                N/A     3/ 8   3/ 8
64NM E OF VA BCH 1150   81 81  210/  6/  8 1012.9R   3/ 7   3/ 7
DUCK PIER NC     1100   79 76  180/  6/  7 1011.9R
44100 DUCK FRF   1124      80                N/A     2/ 8
44056 DUCK FRF   1111      77                N/A     2/ 8
OREGON INLET NC  1100   78 80  150/  4/  5 1013.0R
HATTERAS NC      1100   81 80  100/  4/  6 1012.7R
DIAMOND SHLS NC  1150   80 85  120/ 10/ 12 1013.3R   4/ 7   3/ 7
CAPE LOOKOUT NC  1200   76     140/  9/ 11 1012.9R
$$


USA.gov is the U.S. government's official web portal to all federal, state and local government web resources and services.